Hamilton Island, Australia

5:51 PM AEST on July 25, 2017 (GMT +1000)
Hamilton Island

Weather History for YBHM - May, 2012

Change the Weather History Date:

Tuesday, May 15, 2012

  Actual Average Record
Temperature  
Mean Temperature 70 °F -  
Max Temperature 73 °F - - ()
Min Temperature 67 °F - - ()
Cooling Degree Days 5    
Growing Degree Days 20 (Base 50)    
Moisture  
Dew Point 55 °F    
Average Humidity 58    
Maximum Humidity 68    
Minimum Humidity 42    
Precipitation  
Precipitation 0.00 in - - ()
Sea Level Pressure  
Sea Level Pressure 30.05 in    
Wind  
Wind Speed 21 mph ()    
Max Wind Speed 26 mph    
Max Gust Speed -    
T = Trace of Precipitation, MM = Missing Value Source: Averaged Metar Reports

Daily Weather History Graph

Daily Weather History Graph

Search for Another Location

Airport or City:

Trip Planner

Search our weather history database for the weather conditions in past years. The results will help you decide how hot, cold, wet, or windy it might be!

Date:

Astronomy

May. 15, 2012 Rise Set
Actual Time 6:25 AM AEST 5:35 PM AEST
Civil Twilight 6:02 AM AEST 5:58 PM AEST
Nautical Twilight 5:35 AM AEST 6:25 PM AEST
Astronomical Twilight 5:09 AM AEST 6:51 PM AEST
Moon 1:26 AM AEST (5/15) 1:47 PM AEST (5/15)
Length of Visible Light 11h 55m
Length of Day
11h 09m
Waning Crescent, 29% of the Moon is Illuminated
May 15
Waning Crescent
May 21
New
May 29
First Quarter
Jun 4
Full
Jun 11
Last Quarter

Hourly Weather History & Observations

Time (AEST) Temp. Dew Point Humidity Pressure Visibility Wind Dir Wind Speed Gust Speed Precip Events Conditions
12:00 AM 72 °F 54 °F 42% 30.06 in - SSE 23.0 mph - -  
12:00 AM 71.6 °F 53.6 °F 53% 30.06 in - SSE 23.0 mph - N/A   Unknown
12:30 AM 71.6 °F 57.2 °F 60% 30.06 in - SSE 19.6 mph - N/A   Unknown
1:00 AM 71.6 °F 57.2 °F 60% 30.04 in - SE 20.7 mph - N/A   Unknown
1:30 AM 69.8 °F 59.0 °F 68% 30.04 in - SE 21.9 mph - N/A   Unknown
2:00 AM 69.8 °F 57.2 °F 64% 30.04 in - SE 23.0 mph - N/A   Unknown
2:30 AM 69.8 °F 55.4 °F 60% 30.04 in - SE 24.2 mph - N/A   Unknown
3:00 AM 69 °F 58 °F 59% 30.04 in - SE 25.3 mph - -  
3:00 AM 69.8 °F 57.2 °F 64% 30.04 in - SE 25.3 mph - N/A   Unknown
3:30 AM 69.8 °F 57.2 °F 64% 30.04 in - SSE 24.2 mph - N/A   Unknown
4:00 AM 69.8 °F 57.2 °F 64% 30.04 in - SE 26.5 mph - N/A   Unknown
4:30 AM 68.0 °F 55.4 °F 64% 30.04 in - SSE 25.3 mph - N/A   Unknown
5:00 AM 68.0 °F 53.6 °F 60% 30.04 in - SSE 24.2 mph - N/A   Unknown
5:30 AM 68.0 °F 53.6 °F 60% 30.04 in - SSE 26.5 mph - N/A   Unknown
6:00 AM 68 °F 53 °F 48% 30.05 in - SE 25.3 mph - -  
6:00 AM 68.0 °F 53.6 °F 60% 30.04 in - SE 25.3 mph - N/A   Unknown
6:30 AM 68.0 °F 48.2 °F 49% 30.06 in - SE 24.2 mph - N/A   Unknown
7:00 AM 68.0 °F 50.0 °F 52% 30.06 in - SSE 25.3 mph - N/A   Unknown
7:30 AM 68.0 °F 51.8 °F 56% 30.06 in - SSE 23.0 mph - N/A   Unknown
8:00 AM 69.8 °F 51.8 °F 53% 30.06 in - SSE 23.0 mph - N/A   Unknown
8:30 AM 69.8 °F 51.8 °F 53% 30.06 in - SSE 23.0 mph - N/A   Unknown
9:00 AM 70 °F 52 °F 42% 30.09 in - SSE 24.2 mph - -  
9:00 AM 69.8 °F 51.8 °F 53% 30.09 in - SSE 24.2 mph - N/A   Unknown
9:30 AM 69.8 °F 53.6 °F 56% 30.09 in - SSE 24.2 mph - N/A   Unknown
10:00 AM 69.8 °F 53.6 °F 56% 30.09 in - SSE 24.2 mph - N/A   Unknown
10:30 AM 69.8 °F 55.4 °F 60% 30.06 in - SSE 25.3 mph - N/A   Unknown
11:00 AM 71.6 °F 55.4 °F 57% 30.06 in - SSE 26.5 mph - N/A   Unknown
11:30 AM 71.6 °F 57.2 °F 60% 30.06 in - SSE 25.3 mph - N/A   Unknown
12:00 PM 71 °F 56 °F 50% 30.05 in - SSE 26.5 mph - -  
12:00 PM 71.6 °F 55.4 °F 57% 30.04 in - SSE 26.5 mph - N/A   Unknown
12:30 PM 73.4 °F 57.2 °F 57% 30.04 in - SE 25.3 mph - N/A   Unknown
1:00 PM 71.6 °F 51.8 °F 50% 30.01 in - SE 24.2 mph - N/A   Unknown
1:30 PM 73.4 °F 57.2 °F 57% 30.01 in - SE 24.2 mph - N/A   Unknown
2:00 PM 71.6 °F 53.6 °F 53% 30.01 in - SE 21.9 mph - N/A   Unknown
2:30 PM 69.8 °F 53.6 °F 56% 30.01 in - SSE 23.0 mph - N/A   Unknown
3:00 PM 71 °F 56 °F 50% 30.00 in - SSE 21.9 mph - -  
3:00 PM 71.6 °F 57.2 °F 60% 30.01 in - SSE 21.9 mph - N/A   Unknown
3:30 PM 69.8 °F 51.8 °F 53% 30.01 in - SE 21.9 mph - N/A   Unknown
4:00 PM 69.8 °F 59.0 °F 68% 30.01 in - SE 19.6 mph - N/A   Unknown
4:30 PM 69.8 °F 59.0 °F 68% 30.01 in - SE 20.7 mph - N/A   Unknown
5:00 PM 69.8 °F 57.2 °F 64% 30.01 in - SE 20.7 mph - N/A   Unknown
5:30 PM 69.8 °F 57.2 °F 64% 30.01 in - SE 20.7 mph - N/A   Unknown
6:00 PM 70 °F 59 °F 59% 30.03 in - SE 21.9 mph - -  
6:00 PM 69.8 °F 59.0 °F 68% 30.04 in - SE 21.9 mph - N/A   Unknown
6:30 PM 69.8 °F 57.2 °F 64% 30.04 in - ESE 19.6 mph - N/A   Unknown
7:00 PM 69.8 °F 55.4 °F 60% 30.04 in - SE 20.7 mph - N/A   Unknown
7:30 PM 69.8 °F 57.2 °F 64% 30.06 in - SE 19.6 mph - N/A   Unknown
8:00 PM 69.8 °F 55.4 °F 60% 30.06 in - ESE 19.6 mph - N/A   Unknown
8:30 PM 69.8 °F 53.6 °F 56% 30.06 in - SE 19.6 mph - N/A   Unknown
9:00 PM 70 °F 56 °F 52% 30.08 in - SE 18.4 mph - -  
9:00 PM 69.8 °F 55.4 °F 60% 30.06 in - SE 18.4 mph - N/A   Unknown
9:30 PM 69.8 °F 55.4 °F 60% 30.06 in - SE 19.6 mph - N/A   Unknown
10:00 PM 69.8 °F 57.2 °F 64% 30.06 in - SE 20.7 mph - N/A   Unknown
11:00 PM 69.8 °F 55.4 °F 60% 30.06 in - SE 18.4 mph - N/A   Unknown
11:30 PM 69.8 °F 53.6 °F 56% 30.06 in - SE 18.4 mph - N/A   Unknown